TimeEST,TemperatureF,Dew PointF,Humidity,Sea Level PressureIn,VisibilityMPH,Wind Direction,Wind SpeedMPH,Gust SpeedMPH,PrecipitationIn,Events,Conditions,WindDirDegrees,DateUTC
12:51 AM,23.0,14.0,68,30.49,10.0,Calm,Calm,-,N/A,,Clear,0,2013-01-28 05:51:00
1:51 AM,24.1,15.1,69,30.48,10.0,Calm,Calm,-,N/A,,Clear,0,2013-01-28 06:51:00
2:51 AM,25.0,12.9,60,30.45,10.0,Calm,Calm,-,N/A,,Clear,0,2013-01-28 07:51:00
3:51 AM,24.1,17.1,75,30.45,10.0,Calm,Calm,-,N/A,,Scattered Clouds,0,2013-01-28 08:51:00
4:51 AM,27.0,17.1,66,30.43,10.0,Calm,Calm,-,N/A,,Overcast,0,2013-01-28 09:51:00
5:51 AM,28.0,17.1,63,30.41,10.0,Calm,Calm,-,N/A,,Overcast,0,2013-01-28 10:51:00
6:51 AM,28.0,18.0,66,30.41,10.0,South,3.5,-,N/A,,Overcast,170,2013-01-28 11:51:00
7:51 AM,28.9,18.0,64,30.40,10.0,Calm,Calm,-,N/A,,Overcast,0,2013-01-28 12:51:00
8:51 AM,33.1,19.0,56,30.39,9.0,Variable,5.8,20.7,0.00,,Overcast,0,2013-01-28 13:51:00
9:12 AM,30.2,19.4,64,30.39,2.0,SSW,6.9,-,0.00,Snow,Light Snow,210,2013-01-28 14:12:00
9:19 AM,30.2,21.2,69,30.39,1.0,SSW,5.8,-,0.00,Snow,Light Snow,210,2013-01-28 14:19:00
9:27 AM,30.2,24.8,80,30.39,0.8,SSW,6.9,-,0.00,Snow,Light Snow,200,2013-01-28 14:27:00
9:51 AM,28.9,26.1,89,30.38,0.5,SSW,4.6,-,0.01,Fog-Snow,Snow,200,2013-01-28 14:51:00
10:15 AM,28.4,26.6,93,30.36,0.8,South,5.8,-,0.02,Snow,Snow,190,2013-01-28 15:15:00
10:32 AM,30.2,26.6,86,30.35,2.0,South,6.9,-,0.02,Snow,Light Snow,170,2013-01-28 15:32:00
10:46 AM,30.2,28.4,93,30.34,2.5,South,6.9,-,0.02,Snow,Light Snow,170,2013-01-28 15:46:00
10:48 AM,30.2,28.4,93,30.34,2.5,South,6.9,-,0.02,Snow,Light Snow,180,2013-01-28 15:48:00
10:51 AM,30.9,28.0,89,30.34,2.5,South,6.9,-,0.02,Snow,Light Snow,180,2013-01-28 15:51:00
11:46 AM,32.0,28.4,87,30.30,2.5,South,9.2,-,N/A,Snow,Light Snow,180,2013-01-28 16:46:00
11:51 AM,32.0,28.9,88,30.29,2.5,South,11.5,-,0.00,Snow,Light Snow,190,2013-01-28 16:51:00
11:58 AM,32.0,28.4,87,30.28,3.0,South,9.2,-,0.00,Snow,Light Snow,180,2013-01-28 16:58:00
12:05 PM,32.0,28.4,87,30.27,2.5,South,10.4,-,0.00,,Ice Pellets,180,2013-01-28 17:05:00
12:51 PM,32.0,30.0,92,30.23,2.5,South,12.7,-,0.03,Rain,Ice Pellets,190,2013-01-28 17:51:00
1:51 PM,33.1,30.9,92,30.17,2.5,South,8.1,-,0.00,Rain,Light Rain,180,2013-01-28 18:51:00
2:51 PM,33.1,30.9,92,30.12,2.0,South,9.2,-,0.03,Rain,Light Rain,180,2013-01-28 19:51:00
3:02 PM,33.8,30.2,87,30.12,2.0,South,8.1,-,0.01,Rain,Light Rain,190,2013-01-28 20:02:00
3:51 PM,33.1,32.0,96,30.10,2.0,South,6.9,-,0.06,Rain,Light Rain,180,2013-01-28 20:51:00
4:51 PM,33.1,32.0,96,30.08,2.0,SSW,6.9,-,0.03,Rain,Light Rain,210,2013-01-28 21:51:00
4:58 PM,35.6,33.8,93,30.08,3.0,SSW,6.9,-,0.00,,Overcast,210,2013-01-28 21:58:00
5:51 PM,34.0,32.0,92,30.06,3.0,South,5.8,-,0.00,,Overcast,190,2013-01-28 22:51:00
6:46 PM,33.8,32.0,93,30.06,4.0,SSW,4.6,-,0.02,Rain,Light Rain,200,2013-01-28 23:46:00
6:51 PM,34.0,33.1,96,30.06,4.0,SSW,5.8,-,0.02,Rain,Light Rain,200,2013-01-28 23:51:00
7:51 PM,34.0,33.1,96,30.04,4.0,South,4.6,-,0.02,,Overcast,190,2013-01-29 00:51:00
8:51 PM,34.0,33.1,96,30.03,4.0,South,5.8,-,0.00,,Overcast,190,2013-01-29 01:51:00
9:51 PM,34.0,33.1,96,30.01,4.0,SSW,4.6,-,N/A,,Overcast,200,2013-01-29 02:51:00
10:41 PM,33.8,33.8,100,30.01,4.0,South,3.5,-,N/A,,Overcast,180,2013-01-29 03:41:00
10:51 PM,34.0,33.1,96,30.01,4.0,South,3.5,-,N/A,,Overcast,180,2013-01-29 03:51:00
11:51 PM,35.1,33.1,92,30.01,4.0,SSW,4.6,-,N/A,,Overcast,200,2013-01-29 04:51:00